AirNav   Pilot Hours Calculator
 
 543 users online  

KAOV Ava Bill Martin Memorial Airport
Ava, Missouri, USA

GOING TO AVA?


FAA INFORMATION EFFECTIVE 25 MARCH 2021

Location

FAA Identifier: AOV
Lat/Long: 36-58-18.7940N 092-40-55.0050W
36-58.313233N 092-40.916750W
36.9718872,-92.6819458
(estimated)
Elevation: 1311 ft. / 399.6 m (surveyed)
Variation: 02E (2000)
From city: 2 miles NW of AVA, MO
Time zone: UTC -5 (UTC -6 during Standard Time)
Zip code: 65608

Airport Operations

Airport use: Open to the public
Control tower: no
ARTCC: KANSAS CITY CENTER
FSS: COLUMBIA FLIGHT SERVICE STATION
NOTAMs facility: COU (NOTAM-D service available)
Attendance: UNATNDD
Wind indicator: lighted
Segmented circle: yes
Lights: ACTVT MIRL RY 13/31 - CTAF.
Beacon: white-green (lighted land airport)
Operates sunset to sunrise.

Airport Communications

CTAF/UNICOM: 122.7
SPRINGFIELD APPROACH: 126.35
SPRINGFIELD DEPARTURE: 126.35

Nearby radio navigation aids

VOR radial/distance  VOR name  Freq  Var
DGDr107/9.8DOGWOOD VORTAC109.4001E
SGFr122/38.8SPRINGFIELD VORTAC116.9004E

Airport Services

Fuel available: 100LL
Parking: tiedowns
Airframe service: MAJOR
Powerplant service: MAJOR
Bottled oxygen: NONE
Bulk oxygen: NONE

Runway Information

Runway 13/31

Dimensions: 3634 x 50 ft. / 1108 x 15 m
Surface: asphalt, in excellent condition
Runway edge lights: medium intensity
RUNWAY 13  RUNWAY 31
Latitude: 36-58.534085N36-58.093648N
Longitude: 092-41.169547W092-40.663890W
Elevation: 1277.0 ft.1311.0 ft.
Traffic pattern: leftleft
Runway heading: 135 magnetic, 137 true315 magnetic, 317 true
Markings: nonprecision, in good conditionnonprecision, in good condition
Visual slope indicator: 2-box SAVASI on left (3.00 degrees glide path)
Touchdown point: yes, no lightsyes, no lights
Obstructions: 33 ft. trees, 235 ft. from runway, 197 ft. right of centerline, 1:1 slope to clear
TREES 10-35' TALL, 10-175' FROM RUNWAY END, 150-250 FT RIGHT
none

Airport Ownership and Management from official FAA records

Ownership: Publicly-owned
Owner: CITY OF AVA
404 SOUTH JEFFERSON ST, P.O. BOX 967
AVA, MO 65608
Phone 417-683-5516
Manager: DAVID DAVIDSON
PO BOX 967
AVA, MO 65608
Phone 417-683-3169

Airport Operational Statistics

Aircraft based on the field: 10
Single engine airplanes: 8
Multi engine airplanes: 2
    
Aircraft operations: avg 127/week *
73% local general aviation
18% transient general aviation
8% military
<1% air taxi
* for 12-month period ending 31 December 2018

Additional Remarks

NTSD RY SAFETY AREA BYD RY 13 END, INSUF LENGTH AND LARGE DROP OFF.
100LL SELF SVC CREDIT CARD AVBL 24 HRS.
CLICK PCL 5 TIMES TO UNLOCK TERMINAL DOOR.
FOR CD CTC SPRINGFIELD APCH AT 417-868-5620/5619.

Instrument Procedures

NOTE: All procedures below are presented as PDF files. If you need a reader for these files, you should download the free Adobe Reader.

NOT FOR NAVIGATION. Please procure official charts for flight.
FAA instrument procedures published for use from 25 March 2021 at 0901Z to 22 April 2021 at 0900z.

 
IAPs - Instrument Approach Procedures
RNAV (GPS) RWY 13   download (201KB)
RNAV (GPS) RWY 31   download (192KB)
VOR-A   download (198KB)
NOTE: Special Take-Off Minimums/Departure Procedures apply   download (158KB)

Other nearby airports with instrument procedures:

1MO - Mountain Grove Memorial Airport (20 nm NE)
KTVB - Cabool Memorial Airport (30 nm E)
3DW - Downtown Airport (31 nm NW)
KPLK - M Graham Clark Downtown Airport (33 nm SW)
KBBG - Branson Airport (36 nm SW)
 
Loc | Ops | Rwys | IFR | FBO | Links
Com | Nav | Svcs | Stats | Notes

Branson Jet Center
AirBoss

 
Area around KAOV (Ava Bill Martin Memorial Airport)
 
Road maps at: MapQuest Bing Google
 
Aerial photo
WARNING: Photo may not be current or correct
Aerial photo of KAOV (Ava Bill Martin Memorial Airport)
Do you have a better or more recent aerial photo of Ava Bill Martin Memorial Airport that you would like to share? If so, please send us your photo.

 
Sectional chart

 
Airport distance calculator
Flying to Ava Bill Martin Memorial Airport? Find the distance to fly.

From to KAOV

Sunrise and sunset
Times for 18-Apr-2021
 Local
(UTC-5)
 Zulu
(UTC)
Morning civil twilight06:0611:06
Sunrise06:3311:33
Sunset19:4700:47
Evening civil twilight20:1401:14

Current date and time
Zulu (UTC)  18-Apr-2021 06:33:19
Local (UTC-5)  18-Apr-2021 01:33:19
 
METAR
KBBG 
36nm SW 
180615Z AUTO 00000KT 10SM OVC050 05/05 A3008 RMK AO2
KSGF 
37nm NW 
180552Z 27005KT 10SM BKN060 07/04 A3006 RMK AO2 SLP181 T00720044 10100 20056 401000056 55004
KBPK 
38nm S 
180553Z AUTO 00000KT 10SM CLR 07/04 A3005 RMK AO2 SLP177 T00670039 10100 20067 401220067 58001
KUNO 
38nm E 
180553Z AUTO 32004KT 10SM BKN055 08/04 A3004 RMK AO2 SLP173 T00830044 10106 20083 401170078 58005
KFWB 
38nm SW 
180615Z AUTO 27004KT 10SM OVC055 07/07 A3007 RMK AO2
KLBO 
41nm N 
180615Z AUTO 27007KT 10SM CLR 06/04 A3005 RMK AO2
KFLP 
43nm S 
180556Z AUTO 29003KT 10SM CLR 08/05 A3007 RMK AO2 SLP182 T00780050 10106 20078 401220078 58001
KHRO 
48nm SW 
180553Z AUTO 27005KT 10SM OVC050 07/03 A3007 RMK AO2 SLP183 T00670033 10089 20061 401280061 58000 PWINO
TAF
KBBG 
36nm SW 
180520Z 1806/1906 VRB04KT P6SM BKN080 FM181600 30008KT P6SM OVC050 PROB30 1817/1822 4SM -SHRA BR OVC025
KSGF 
37nm NW 
180520Z 1806/1906 28005KT P6SM BKN050 FM181200 30005KT P6SM OVC045 FM181700 29010KT P6SM OVC050 PROB30 1817/1822 4SM -SHRA BR OVC025
KBPK 
38nm S 
180520Z 1806/1906 VRB04KT P6SM BKN050 FM181500 31008KT P6SM VCSH OVC040 FM182100 30006KT P6SM SCT040 BKN100 FM190000 VRB04KT P6SM SCT100
NOTAMs
Click for the latest NOTAMs
NOTAMs are issued by the DoD/FAA and will open in a separate window not controlled by AirNav.

 

 
 

FBO, Fuel Providers, and Aircraft Ground Support

  
 Business Name 
 
 Contact 
 
 Services / Description 
 
Fuel Prices
 
Comments
  
City of Ava, Missouri 417-840-2301
417-683-5516
[web site]
[email]
Aviation fuel, Aircraft parking (ramp or tiedown), Passenger terminal and lounge, Aircraft maintenance, Rental cars delivered, Public telephone, Computerized weather, ...

More info about City of Ava, Missouri
Phillips 66
100LL
SS $4.36 
 Updated 31-Mar-2021
 
   write
SS=Self service
Update Fuel Prices
 

Would you like to see your business listed on this page?

 If your business provides an interesting product or service to pilots, flight crews, aircraft, or users of the Ava Bill Martin Memorial Airport, you should consider listing it here.  To start the listing process, click on the button below
 
Add a business
 

Other Pages about Ava Bill Martin Memorial Airport

Update a link
 
Copyright © AirNav, LLC. All rights reserved. Privacy Policy  Contact